Tracking 19644 objects as of 26-Apr-2019
HD Live streaming from Space Station
objects crossing your sky now

THOR ABLESTAR DEB

Track THOR ABLESTAR DEB now!
10-day predictions


NORAD ID: 1522
Int'l Code: 1965-065L
Perigee: 1,086.5 km
Apogee: 1,194.0 km
Inclination: 90.2 °
Period: 108.0 minutes
Semi major axis: 7511 km
RCS: 0.4975 m2 (medium)
Launch date: August 13, 1965
Source: United States (US)
Launch site: AIR FORCE WESTERN TEST RANGE (AFWTR)

Note: This is SATELLITE DEBRIS
aabbcc
Your satellite tracking list
Your tracking list is empty




NASA's NSSDC Master Catalog

Two Line Element Set (TLE):
1  1522U 65065L   19115.52308010 +.00000035 +00000-0 +52092-4 0  9998
2  1522 090.1735 091.6243 0071541 019.9342 098.7134 13.33626528611940
Source of the keplerian elements: AFSPC